Home > Weather > Frauenfeld > Past weeks

Flag for Switzerland Weather for the Past 2 Weeks in Frauenfeld, Thurgau, Switzerland

Now
41 °F

Passing clouds.


Feels Like: 38 °F
Forecast: 30 / 59 °F
Wind: 5 mph from Northwest

Location: Zurich-Kloten

Current Time: Apr 29, 2016 at 2:28:04 AM

Latest Report: Apr 29, 2016 at 1:50 AM


Visibility: N/A

Pressure: 30.04 "Hg

Humidity: 76%

Dew Point: 34 °F

Location of FrauenfeldLocation

Historic Weather in Frauenfeld — Graph

°F

Frauenfeld Temperature Yesterday

Maximum temperature yesterday: 54 °F (at 3:50 PM)
Minimum temperature yesterday: 27 °F (at 5:50 AM)
Average temperature yesterday: 42 °F

High & Low Weather Summary for the Past Weeks

 TemperatureHumidityPressure
High68 °F (Apr 21, 3:50 PM)100% (Apr 16, 1:50 AM)30.33 "Hg (Apr 16, 1:50 AM)
Low27 °F (Apr 28, 5:50 AM)37% (Apr 20, 4:50 PM)29.65 "Hg (Apr 16, 10:20 PM)
Average47 °F75%29.96 "Hg
* Reported Apr 14 1:20 AM — Apr 29 1:20 AM, Frauenfeld, Weather by CustomWeather, © 2016

Note: Actual official high and low records may vary slightly from our data, if they occured in-between our weather recording intervals... More about our weather records

Advertising

Frauenfeld Weather History for the Previous 24 Hours

Scroll right to see more
 ConditionsComfort  
Time TempWeatherWind HumidityBarometerVisibility
1:20 AM
Fri, Apr 29
41 °FPassing clouds.5 mph76%30.04 "HgN/A
12:50 AM43 °FPassing clouds.3 mph71%30.04 "HgN/A
12:20 AM43 °FPassing clouds.3 mph71%30.04 "HgN/A
11:50 PM
Thu, Apr 28
43 °FPassing clouds.3 mph71%30.04 "HgN/A
11:20 PM45 °FPassing clouds.3 mph61%30.04 "HgN/A
10:50 PM45 °FPassing clouds.5 mph61%30.04 "HgN/A
10:20 PM45 °FPassing clouds.3 mph61%30.04 "HgN/A
9:50 PM43 °FPassing clouds.5 mph71%30.04 "HgN/A
9:20 PM43 °FScattered clouds.5 mph66%30.01 "HgN/A
8:50 PM46 °FScattered clouds.3 mph50%30.01 "HgN/A
8:20 PM48 °FScattered clouds.6 mph46%30.01 "HgN/A
7:50 PM48 °FScattered clouds.6 mph50%30.01 "HgN/A
7:20 PM50 °FPassing clouds.7 mph47%30.01 "HgN/A
6:50 PM52 °FScattered clouds.9 mph44%29.98 "HgN/A
6:20 PM50 °FScattered clouds.8 mph47%29.98 "HgN/A
5:50 PM52 °FPassing clouds.9 mph41%29.98 "HgN/A
5:20 PM52 °FPassing clouds.8 mph44%29.98 "HgN/A
4:50 PM52 °FPassing clouds.9 mph44%29.98 "HgN/A
4:20 PM52 °FScattered clouds.10 mph44%29.98 "HgN/A
3:50 PM54 °FScattered showers. Scattered clouds.10 mph44%29.98 "HgN/A
3:20 PM50 °FScattered showers. Scattered clouds.8 mph43%29.98 "HgN/A
2:20 PM50 °FScattered showers. Scattered clouds.7 mph37%29.98 "HgN/A
1:20 PM48 °FScattered showers. Scattered clouds.13 mph43%29.98 "HgN/A
12:50 PM50 °FScattered showers. Passing clouds.7 mph40%29.98 "HgN/A
12:20 PM50 °FScattered showers. Scattered clouds.10 mph47%29.98 "HgN/A
11:50 AM48 °FScattered showers. Scattered clouds.13 mph37%29.98 "HgN/A
11:20 AM48 °FPassing clouds.8 mph46%29.98 "HgN/A
10:20 AM46 °FPassing clouds.7 mph53%29.98 "HgN/A
9:50 AM43 °FPassing clouds.6 mph66%29.98 "HgN/A
9:20 AM41 °FPassing clouds.6 mph70%29.98 "HgN/A
7:50 AM32 °FSunny.1 mph87%29.98 "Hg10 mi
7:20 AM28 °FSunny.No wind100%29.98 "Hg10 mi
6:50 AM28 °FClear.No wind100%29.98 "Hg6 mi
5:50 AM27 °FFog.3 mph100%29.95 "Hg6 mi
5:20 AM28 °FFog.2 mph93%29.95 "Hg6 mi
4:20 AM28 °FClear.3 mph93%29.95 "Hg10 mi
3:50 AM28 °FClear.3 mph93%29.95 "Hg10 mi
3:20 AM30 °FClear.No wind93%29.95 "Hg10 mi
2:50 AM30 °FClear.2 mph93%29.95 "Hg10 mi
Weather by CustomWeather, © 2016

See weather overviewHow to use our weather pages